Powrót do katalogu

SL-8 R/B

AktywnyLEO
NORAD 11427·ROCKET BODY·🇷🇺 Russia

Wystrzelony Jun 28, 1979 z Plesetsk Cosmodrome

Loading…

Następne Przeloty (najbliższe 24 godziny)

TLE

ŚwieżeSource: Space-Track

Epoka: Sep 14, 2026, 12:33 UTC

1 11427U 79060B   26257.52311903  .00000058  00000-0  27489-4 0  9990
2 11427  74.0144 283.5600 0020278 331.6143  28.3905 14.38915512472886

Śledź SL-8 R/B w czasie rzeczywistym z AllMySat

Download on the App Store